Вернуться в каталог

PRAETORIAN SDA_601

АктивенВоенныеPO
NORAD 65585·PAYLOAD·🇺🇸 United States

Запущен Sep 10, 2025 с Vandenberg Space Force Base

Loading…

Ближайшие Пролёты (ближайшие 24 часа)

TLE

СвежийSource: Space-Track

Эпоха: Sep 14, 2026, 00:47 UTC

1 65585U 25203W   26257.03330832  .00000396  00000-0  35094-3 0  9997
2 65585  81.3008 288.8938 0004941 335.5601  24.5320 13.83175350 50960

Отслеживайте PRAETORIAN SDA_601 в реальном времени с AllMySat

Download on the App Store